GFSWCAN_sfc_rhum_276.txt.gz
RH
86 86 85 85 85 86 85 83 84 85 84 86 85 84 84 80 75 85 98 94 78 95 86 79 74 75 84 88 90 83 85 87 94 89 92 91 97 90 88 65 75 85 93 99 93 100 92 48 53 59 61 58 56 62
86 87 87 87 87 86 86 87 88 87 86 86 85 85 85 83 78 81 98 96 94 95 88 94 86 80 70 68 88 92 78 81 90 94 98 97 97 98 85 92 64 80 73 87 80 76 56 54 56 50 51 57 61 68
89 89 89 89 89 89 88 87 87 88 87 87 86 85 86 84 78 83 98 96 91 96 88 81 76 71 77 77 72 91 95 78 76 77 96 96 92 92 94 92 76 62 65 86 72 56 58 57 54 52 50 52 50 65
87 87 87 88 89 88 86 84 82 82 83 89 87 86 87 85 81 82 94 96 92 95 94 82 64 76 73 78 81 76 82 89 85 93 97 97 94 79 90 74 80 62 63 61 67 53 48 47 50 54 49 49 55 56
85 85 84 85 85 87 86 84 85 85 84 87 86 86 88 82 83 90 96 98 89 87 92 94 77 67 68 79 84 84 85 90 99 99 99 99 94 89 93 93 85 60 59 70 66 46 55 51 49 50 52 48 50 55
84 85 84 85 85 86 83 82 82 82 85 88 84 87 89 82 76 84 96 81 93 90 94 90 79 76 69 79 88 91 92 94 97 96 98 95 86 85 99 99 71 56 60 58 60 50 51 52 52 51 55 54 53 56
84 84 85 85 84 81 80 86 87 86 83 82 84 90 83 74 86 94 88 81 87 89 95 91 90 72 76 86 94 98 93 98 96 98 100 98 95 92 98 92 61 55 55 55 56 62 60 52 55 50 60 56 54 51
84 83 84 85 82 81 85 85 84 85 88 88 85 83 80 77 78 92 92 85 86 95 95 97 92 86 74 96 98 97 97 97 99 98 97 98 96 98 99 81 72 64 61 58 55 52 54 50 51 53 50 52 56 57
84 84 83 82 84 85 84 83 83 83 84 82 77 70 76 88 94 86 79 82 93 90 98 93 94 89 81 98 98 97 98 99 98 99 98 94 97 97 80 81 89 89 91 88 87 66 52 57 55 53 54 57 70 69
85 86 85 85 84 82 82 82 82 82 79 71 76 87 96 86 76 79 86 95 94 97 93 96 96 97 89 96 95 99 98 98 99 91 95 97 93 77 82 75 80 86 87 92 90 82 77 71 66 65 64 61 73 77
85 85 85 84 83 82 81 81 82 76 68 81 96 98 95 79 90 93 92 90 92 87 91 87 92 93 80 96 99 98 97 98 99 87 95 96 97 88 83 89 84 87 90 96 98 97 98 92 74 69 70 72 84 87
84 84 84 84 83 83 83 82 72 79 83 86 92 90 86 91 95 92 97 92 91 82 93 91 91 96 88 85 96 95 99 98 95 92 98 98 94 88 84 87 78 76 78 81 87 97 97 97 98 98 99 98 98 97
83 82 82 82 82 83 76 69 74 84 83 80 87 89 88 91 98 81 100 96 98 92 95 96 96 96 95 93 93 91 94 92 91 98 95 93 86 79 89 89 87 82 84 83 70 70 82 91 85 88 87 85 85 84
79 78 77 77 80 77 74 75 76 75 85 86 84 99 86 99 88 88 86 92 96 97 90 99 99 98 99 98 94 98 80 94 97 100 86 99 91 89 91 93 95 91 90 86 82 81 83 84 85 86 92 94 94 91
77 75 73 76 77 72 72 74 74 89 93 92 75 95 92 84 88 89 95 92 94 91 87 96 96 95 97 96 98 95 97 95 93 94 97 97 93 93 94 91 94 94 94 93 90 90 88 88 90 90 90 91 93 97
78 77 78 76 74 73 72 76 86 89 94 85 83 91 90 92 94 90 92 93 92 88 96 96 98 99 96 97 98 94 92 96 97 98 98 92 86 89 89 88 90 90 90 90 88 88 85 88 88 88 93 95 95 96
73 91 80 78 74 70 69 83 84 94 90 77 96 90 92 84 88 94 96 83 92 92 92 95 92 83 91 99 88 94 98 98 98 98 98 97 96 83 82 84 81 73 72 75 75 81 85 84 87 93 93 84 92 92
88 83 80 66 68 73 85 85 91 84 75 96 88 92 92 92 93 94 84 87 94 96 94 86 94 94 92 90 88 99 99 99 96 92 86 84 85 84 79 79 72 73 73 79 83 85 87 90 84 83 85 87 93 95
89 77 65 64 72 88 88 87 84 90 88 83 88 84 77 85 91 79 82 89 91 91 95 96 97 97 94 98 99 95 89 92 89 90 85 78 76 75 81 75 76 80 83 85 83 84 83 84 86 86 87 90 96 94
67 68 65 62 66 89 82 87 83 80 83 79 73 80 74 88 90 94 94 88 87 94 95 95 94 93 95 92 95 81 89 87 92 93 87 84 80 79 74 79 88 81 84 86 88 90 89 88 84 88 93 95 97 96
69 72 71 75 91 88 84 83 80 76 72 77 72 62 86 82 91 91 89 75 92 94 96 93 94 88 78 85 84 82 79 78 82 84 81 82 89 93 93 92 89 91 96 94 95 92 92 94 91 92 94 96 98 98
86 67 86 81 91 86 91 78 67 68 76 72 69 67 90 86 88 90 86 89 94 88 92 88 86 85 73 63 66 68 71 72 71 75 89 96 96 94 94 96 100 94 94 93 86 88 86 87 90 92 97 98 97 96
73 78 90 77 85 80 84 72 70 63 78 77 76 71 83 91 85 71 86 86 89 89 85 88 71 72 78 72 74 70 70 74 84 89 93 95 95 95 97 97 98 99 92 90 88 90 94 95 98 98 97 97 98 98
71 84 89 94 78 90 76 88 83 77 76 81 78 66 71 86 74 89 80 90 86 86 90 66 82 87 89 90 96 92 84 97 94 96 95 98 96 88 96 96 97 97 95 92 90 93 96 98 96 97 97 97 99 99
72 79 86 98 90 88 87 89 86 76 75 86 79 81 83 94 89 99 91 84 92 89 78 80 90 90 92 90 93 89 84 94 91 88 81 91 93 97 96 97 97 95 95 99 96 96 97 97 97 96 93 97 95 98
67 74 84 91 97 87 91 88 92 87 92 86 86 87 96 94 88 79 85 85 87 86 84 81 78 73 73 84 79 73 71 82 94 95 81 91 93 95 97 98 94 92 98 98 97 97 96 97 96 92 96 95 99 100
83 93 90 65 71 72 92 91 79 88 91 79 87 94 93 85 88 79 86 89 84 85 84 78 80 77 70 67 65 70 76 88 82 72 90 95 94 94 94 97 95 94 97 96 96 96 94 93 95 97 98 100 100 100
88 88 96 98 98 83 85 95 92 88 81 81 85 81 77 78 73 78 79 85 82 75 73 69 73 71 69 69 71 75 77 87 95 98 98 97 96 97 97 96 96 99 98 96 96 94 94 97 97 100 100 100 100 100
99 96 87 99 98 95 89 78 80 81 78 82 82 84 78 81 83 85 82 82 90 92 86 78 77 82 85 87 87 86 88 97 95 95 94 88 94 89 93 97 100 100 98 96 95 96 94 96 99 100 100 100 100 100
99 90 95 100 90 87 84 83 88 93 88 78 83 81 82 77 74 89 91 82 92 86 82 91 90 91 92 93 91 88 90 94 94 92 92 90 89 91 99 99 100 99 98 98 98 95 96 98 100 99 99 99 100 100
95 97 96 95 90 87 78 97 99 99 97 93 97 85 71 76 86 89 82 87 91 100 100 99 98 98 99 96 96 95 92 94 93 90 89 90 99 98 97 98 99 98 98 98 98 98 100 100 100 100 100 100 100 100
100 95 96 97 91 92 93 94 96 94 97 98 85 99 95 96 95 82 97 99 100 100 100 100 100 98 98 98 97 96 96 98 98 97 95 97 100 99 98 97 97 98 98 99 100 100 100 100 100 100 100 100 100 100
98 100 100 98 93 90 95 86 94 96 97 96 91 89 86 87 82 85 97 99 99 100 100 100 100 100 100 100 100 99 98 98 96 96 95 96 95 95 96 97 97 98 98 100 100 100 100 100 100 100 100 100 100 98

GFSWCAN_sfc_rhum_279.txt.gz
RH
87 86 87 88 87 85 84 85 86 86 84 84 84 84 83 82 76 80 95 89 74 96 80 73 64 72 74 80 89 79 82 82 91 89 87 85 75 64 67 54 63 73 84 92 85 92 83 37 40 45 40 44 42 44
87 87 87 86 85 85 85 86 86 86 85 84 85 85 82 82 79 81 95 92 91 96 89 88 81 76 65 60 84 85 72 70 86 93 87 83 82 84 66 62 53 69 58 73 69 62 43 43 45 42 45 47 45 43
88 87 87 86 86 86 86 87 85 86 86 85 85 86 83 80 78 80 91 94 86 98 83 75 73 69 69 69 64 92 85 67 64 64 87 82 72 69 81 73 59 52 55 70 65 45 46 46 42 44 39 41 39 39
87 87 87 87 87 87 87 88 86 86 86 86 86 88 86 84 79 79 86 90 89 93 93 77 61 72 68 70 69 70 74 75 72 74 90 89 79 62 63 53 57 42 48 45 46 42 41 38 39 39 36 35 39 39
88 88 88 89 89 88 88 88 88 88 86 86 87 88 85 82 82 86 91 95 85 84 90 86 69 64 66 74 76 74 75 80 93 95 94 86 71 70 69 75 72 49 48 52 50 41 46 43 40 40 44 44 43 44
90 90 90 89 88 86 84 84 84 88 88 86 89 86 83 79 71 79 100 79 86 86 92 89 70 70 79 81 82 81 79 86 93 93 92 82 73 75 86 79 57 53 52 53 52 44 47 48 46 42 46 48 45 45
87 87 88 89 88 86 85 85 85 86 88 89 90 86 77 81 90 95 87 80 82 83 93 83 76 66 73 77 86 95 86 94 89 92 93 80 76 82 89 80 49 55 57 61 60 64 69 56 58 48 48 44 46 44
86 86 88 88 86 84 83 83 85 88 87 90 85 84 82 79 79 91 87 80 77 88 88 88 82 79 66 88 95 87 96 94 96 90 90 84 78 86 89 66 73 73 71 72 69 71 73 69 64 56 49 46 48 48
86 87 85 81 82 87 88 84 86 86 87 83 78 70 73 85 94 92 75 76 86 87 97 89 76 93 73 94 90 91 90 97 89 96 90 84 84 90 73 78 73 79 89 91 85 83 83 86 85 83 69 58 55 52
87 85 83 86 87 87 86 86 85 82 75 68 69 84 96 89 77 77 82 91 93 95 93 88 82 85 79 84 94 93 94 94 92 76 83 92 70 67 74 76 78 78 78 90 96 91 94 94 94 94 79 62 60 59
85 85 86 86 85 85 85 83 78 71 66 79 96 98 93 77 84 87 93 88 84 82 80 81 76 70 69 82 89 88 92 88 93 72 85 85 78 80 75 80 74 71 72 74 66 66 72 85 91 95 95 98 96 91
85 86 85 84 83 84 82 77 69 76 76 86 89 89 85 84 88 86 91 84 74 74 82 75 79 78 74 71 82 93 92 87 82 79 91 87 77 76 73 76 74 69 70 69 64 60 68 68 71 75 76 79 87 94
85 83 83 83 84 83 75 70 77 82 76 76 83 80 82 88 92 75 98 90 92 83 85 86 94 85 83 76 85 82 91 88 77 94 83 77 76 71 74 76 74 69 74 76 72 67 68 68 68 71 76 75 80 78
84 83 84 85 82 75 79 84 76 71 80 80 78 97 84 93 80 73 71 80 92 86 88 92 97 94 94 85 80 90 68 80 96 95 80 83 78 78 77 76 80 84 83 80 70 64 66 69 70 72 81 85 88 88
84 85 83 79 80 84 83 73 72 86 89 84 71 94 88 79 84 90 90 86 88 82 82 90 92 92 90 89 86 86 95 92 82 87 91 90 81 77 81 78 81 90 89 84 74 83 86 87 84 84 81 82 80 89
83 80 81 79 76 75 71 70 78 85 90 79 77 88 82 82 88 88 83 86 84 84 85 84 90 90 86 87 94 96 85 91 91 91 94 93 91 90 84 77 78 78 74 72 69 73 79 84 86 86 85 85 86 88
75 89 80 75 72 70 67 77 82 90 82 70 92 80 84 74 82 83 80 78 85 76 83 79 82 71 82 92 86 84 90 92 78 80 78 78 89 88 82 79 76 74 70 71 71 78 82 84 89 90 90 83 84 85
87 84 73 66 66 71 83 83 84 73 76 82 86 87 83 82 84 82 76 80 79 79 76 72 79 75 84 76 74 88 90 86 77 76 73 74 74 77 76 80 78 72 66 82 85 84 86 83 73 74 79 80 85 87
87 72 66 62 68 84 80 81 78 83 82 80 80 76 71 79 80 73 76 79 80 78 87 85 91 86 77 79 85 82 82 76 73 73 72 69 70 73 76 73 75 74 78 81 71 73 74 78 79 81 82 83 88 86
69 64 64 60 64 88 82 83 76 73 73 77 70 72 72 77 76 82 81 75 71 75 86 88 80 80 83 75 81 77 73 70 75 84 77 72 74 73 69 74 76 74 75 73 77 80 80 83 78 77 79 84 93 92
66 70 68 72 86 84 79 76 78 73 69 76 66 60 79 73 75 76 73 68 74 72 74 77 84 75 70 76 70 68 69 65 72 72 74 78 71 70 78 77 78 78 79 79 84 85 85 86 83 81 89 92 94 95
83 67 82 77 86 81 89 72 65 64 73 68 64 60 74 84 80 75 73 72 74 76 79 77 70 66 61 59 64 54 64 64 66 71 77 76 85 84 83 83 81 80 81 84 81 88 88 84 84 92 96 97 94 93
73 77 83 68 79 78 82 66 64 56 70 78 65 64 75 80 74 62 77 70 79 80 74 71 66 69 70 70 64 64 70 70 75 78 79 80 82 83 86 84 80 86 86 80 76 83 86 84 88 96 95 92 87 88
70 84 90 90 75 93 72 85 72 68 70 70 65 65 69 75 68 78 71 78 80 68 70 67 66 70 71 75 78 73 66 74 75 77 76 81 77 78 79 79 74 81 81 79 83 87 89 92 92 92 94 94 91 91
72 81 85 97 86 84 85 84 82 66 81 79 74 77 82 83 86 87 82 82 75 76 72 69 71 73 75 70 74 72 75 76 73 72 66 69 74 79 82 75 80 80 80 91 93 93 93 93 94 94 91 91 88 90
75 80 78 90 94 83 85 86 88 88 85 84 83 80 86 84 85 79 80 83 82 78 83 81 80 70 65 70 67 64 63 63 80 80 72 70 81 82 82 83 85 80 83 87 92 96 93 91 92 92 88 86 90 93
76 88 82 63 69 69 88 83 71 81 86 76 80 92 89 82 82 78 75 77 73 79 75 72 73 68 65 62 64 68 70 71 80 75 71 72 78 78 83 87 88 81 83 89 95 95 94 92 92 91 90 88 90 95
76 88 85 92 91 74 86 90 90 84 79 73 79 84 75 75 72 78 74 75 76 71 69 67 70 70 72 72 76 80 80 80 82 90 87 85 84 87 91 89 86 94 90 93 95 94 93 93 92 90 91 93 95 94
96 90 85 100 94 94 86 78 78 76 71 77 81 77 77 74 81 75 70 75 76 80 78 74 75 88 87 88 90 89 91 93 98 96 94 92 90 87 91 93 93 95 96 96 97 96 91 91 91 93 93 96 96 94
96 84 91 100 92 89 85 83 87 89 80 78 74 68 62 74 81 81 80 78 81 82 80 86 91 95 96 98 96 92 87 93 95 96 96 94 92 92 92 91 93 95 97 95 96 95 98 94 96 94 93 93 92 90
92 92 93 92 91 89 89 93 96 93 92 87 93 84 67 76 85 83 77 76 82 92 94 94 96 96 97 98 98 98 95 91 93 91 93 94 94 96 95 94 94 96 95 95 95 94 95 95 94 94 92 91 92 92
100 98 97 99 93 91 95 94 93 93 93 95 90 95 92 91 92 86 89 95 96 97 100 100 99 95 95 96 97 96 96 96 94 95 93 95 94 94 94 93 94 94 94 94 95 94 93 94 95 94 92 91 93 93
98 100 100 98 95 91 94 90 92 96 97 97 93 91 91 90 82 85 91 97 96 95 96 96 95 97 97 97 98 98 98 95 95 96 93 94 95 95 94 94 94 94 93 94 94 93 93 93 94 94 94 95 95 94

GFSWCAN_sfc_rhum_282.txt.gz
RH
91 91 89 87 87 86 85 84 83 83 85 84 83 83 83 84 78 58 75 68 54 96 69 59 51 50 54 60 94 62 74 80 99 100 85 81 62 50 44 31 45 60 74 83 73 86 76 25 28 37 38 32 33 34
90 89 87 87 87 86 86 84 83 84 84 84 83 86 84 83 79 69 73 70 65 94 83 66 65 61 52 48 66 63 64 54 73 97 85 72 77 67 42 50 34 50 42 56 56 48 32 31 32 30 32 37 35 36
90 89 88 87 86 86 86 85 84 84 85 84 84 84 83 80 75 66 58 72 59 94 68 58 63 57 52 57 52 97 66 52 52 52 74 67 63 40 62 44 35 34 36 61 52 30 28 28 26 27 25 28 27 29
89 88 87 86 86 87 87 86 85 85 85 86 84 84 86 83 76 66 55 66 61 83 94 71 49 59 53 51 53 54 54 58 53 49 96 90 72 41 42 38 41 29 39 33 34 29 30 28 28 30 30 30 30 30
86 86 86 86 87 86 85 86 86 85 86 87 86 87 85 80 77 66 64 67 59 67 86 73 53 53 57 53 54 51 52 56 76 97 100 84 46 50 45 48 46 32 38 38 38 36 42 40 39 43 44 40 35 35
86 86 86 86 87 86 86 87 86 86 88 87 87 86 83 78 70 52 98 60 56 51 99 85 56 62 64 60 61 63 59 70 84 87 80 57 56 57 72 50 38 36 40 42 45 44 48 53 49 42 50 50 46 45
87 88 88 88 88 88 87 87 87 87 88 87 86 81 81 80 67 91 79 70 66 54 97 70 66 59 62 59 67 80 70 86 75 84 77 50 51 64 69 54 38 48 47 47 48 56 65 58 63 61 64 54 51 43
88 88 88 87 86 87 88 88 87 89 88 85 85 83 81 80 73 75 63 66 57 64 67 76 74 68 58 73 85 65 93 86 88 73 66 58 60 62 75 42 52 49 49 49 52 54 75 64 62 64 57 54 53 48
89 88 86 85 85 84 86 88 89 89 85 84 81 71 53 67 83 60 71 65 62 68 90 72 68 86 57 73 77 84 83 97 76 89 68 61 64 76 47 54 54 55 58 59 62 60 53 54 51 50 52 61 76 73
89 88 87 86 85 85 87 89 87 84 79 74 51 67 100 77 76 71 64 91 100 96 87 71 53 80 59 61 84 87 89 81 84 66 63 76 50 41 54 54 51 54 60 63 60 58 56 55 52 53 50 53 70 83
85 84 84 84 83 85 88 85 80 73 64 56 79 94 83 76 59 65 90 76 63 67 56 57 48 56 53 65 74 70 78 69 76 58 65 61 54 59 56 55 52 51 50 49 46 46 44 50 54 56 54 52 52 54
86 88 89 87 84 87 83 78 68 56 58 72 77 74 66 65 74 74 77 62 51 56 62 54 59 52 58 50 63 78 64 67 64 58 76 65 64 56 50 56 52 47 47 46 45 45 43 40 41 43 43 42 43 51
87 87 87 85 83 79 72 68 79 80 67 57 63 67 64 72 80 61 85 70 75 64 66 67 86 68 65 54 76 76 85 73 55 83 63 67 64 59 56 47 45 42 46 48 42 36 37 38 40 44 49 48 55 55
86 86 85 82 76 72 83 80 71 58 56 61 62 82 72 78 58 52 51 59 74 72 72 73 90 87 79 75 66 78 55 61 78 78 69 87 73 60 51 52 54 58 60 57 50 44 44 48 47 53 69 73 73 70
85 84 80 76 79 84 79 72 69 65 68 62 56 77 74 68 70 72 61 57 59 65 70 82 80 75 85 87 75 67 81 73 58 83 83 81 74 65 67 67 63 85 86 80 63 83 86 83 75 80 80 73 62 86
83 78 75 84 81 72 67 60 59 66 77 61 62 78 72 78 84 72 60 64 56 64 63 63 66 68 68 67 83 77 61 72 86 89 85 70 76 89 75 64 63 60 60 63 61 71 83 82 81 88 86 86 83 88
83 94 85 82 75 70 67 56 61 95 63 62 85 63 67 64 75 67 55 61 61 53 71 56 65 53 61 63 60 67 88 86 70 66 52 48 52 52 47 51 56 52 54 65 68 87 90 89 87 87 80 83 84 90
86 77 76 69 57 61 61 59 60 54 66 65 77 76 63 59 64 60 54 58 52 53 48 58 55 56 65 51 68 71 70 67 57 48 41 38 39 42 41 44 46 47 50 80 87 91 90 81 57 55 70 78 79 80
72 61 70 64 54 65 60 60 56 68 68 61 59 51 47 61 58 52 58 60 58 54 66 56 53 50 49 54 59 54 49 43 48 51 47 42 43 50 62 55 56 54 72 81 66 62 55 54 58 61 64 64 79 85
67 63 63 61 59 87 68 63 51 50 55 58 49 50 50 56 58 71 62 48 40 46 56 58 48 54 54 46 46 42 39 40 42 53 53 52 53 54 51 56 59 56 61 60 61 64 56 60 59 57 61 77 88 90
50 58 62 54 67 67 60 58 61 50 49 56 45 44 64 50 53 59 58 44 53 44 44 43 59 47 44 48 42 39 36 35 40 44 48 56 52 51 52 53 56 61 66 67 64 64 68 70 69 67 85 98 91 93
59 60 61 58 67 72 70 47 42 43 51 48 42 35 58 70 67 60 46 47 46 48 47 49 44 38 35 35 40 33 37 40 41 44 58 54 57 52 52 52 53 63 65 68 57 70 73 65 66 75 83 91 84 83
64 60 59 48 69 63 65 46 43 35 56 51 38 43 53 55 49 41 61 44 54 56 51 45 44 54 46 53 42 40 46 49 45 51 55 57 57 56 57 59 55 69 73 64 53 60 70 70 76 84 83 83 83 87
60 71 80 75 60 83 58 64 47 47 47 44 39 44 49 56 49 55 48 53 56 47 46 50 45 49 50 60 58 52 50 45 50 56 57 58 64 66 61 63 55 55 54 56 59 70 77 90 79 78 84 87 87 85
68 79 72 84 69 70 73 72 65 49 65 62 53 57 71 64 65 62 60 55 50 57 55 48 51 52 55 54 50 54 67 56 65 69 71 64 65 71 71 65 67 62 59 84 92 93 93 91 85 84 84 87 81 79
74 78 63 68 80 65 67 71 67 69 64 62 55 65 64 65 62 57 58 66 72 66 95 91 76 51 47 48 54 57 62 57 62 70 76 70 74 82 85 85 84 80 61 82 96 94 90 84 86 86 87 82 76 81
62 76 67 53 54 55 73 67 57 63 64 60 67 75 69 62 60 54 51 56 55 64 57 55 54 50 58 59 59 60 59 62 74 73 77 78 78 78 85 92 90 82 68 76 93 96 95 89 89 88 87 84 82 85
68 70 79 80 75 55 75 70 70 64 60 52 62 72 66 59 51 56 56 58 67 53 49 45 46 50 56 59 64 71 75 76 83 79 73 70 69 79 84 83 84 83 87 92 96 91 92 91 90 88 86 86 84 84
77 71 66 90 82 73 68 64 63 52 46 56 68 60 61 50 68 61 50 52 62 65 64 70 78 88 73 72 80 80 84 84 87 88 86 86 85 81 80 85 86 85 88 88 89 89 89 90 89 90 80 86 87 86
83 64 73 80 77 66 71 66 73 77 52 51 51 43 40 59 73 72 70 69 74 83 88 94 93 88 84 87 85 83 80 83 87 91 93 91 88 88 91 91 91 90 90 89 91 91 89 91 93 88 85 85 85 83
76 76 75 71 76 77 81 89 88 81 79 74 72 72 64 70 74 70 67 79 84 89 86 82 82 90 89 87 87 86 85 87 88 88 88 91 91 91 90 90 92 94 93 93 93 92 91 90 87 79 76 79 80 82
90 84 83 84 80 83 86 86 83 83 80 86 76 81 85 85 75 65 81 88 84 82 86 94 89 89 87 87 89 90 93 92 90 90 89 91 91 90 90 90 90 90 93 93 92 91 84 78 85 84 84 78 81 82
93 92 92 88 86 79 88 85 75 84 86 82 74 78 76 76 71 74 83 90 93 92 91 92 92 90 87 84 86 90 89 86 88 89 90 90 92 93 92 91 91 90 89 89 87 85 84 83 85 82 82 82 83 84

GFSWCAN_sfc_rhum_285.txt.gz
RH
91 91 90 90 88 86 86 85 84 85 85 83 82 80 83 84 76 59 70 65 62 93 66 46 38 42 38 58 90 55 72 74 97 100 82 77 52 45 35 29 46 57 73 82 72 85 74 21 21 29 31 28 28 29
91 90 90 88 86 86 85 85 85 85 84 83 83 85 85 82 75 63 56 59 57 92 78 57 53 47 45 44 57 56 57 50 74 92 78 64 73 58 38 48 25 47 42 52 52 49 34 26 26 24 25 29 29 29
91 89 88 87 87 86 85 85 85 84 83 83 84 85 83 82 74 60 52 57 58 91 64 58 62 50 44 46 41 96 53 42 45 50 65 63 58 38 56 40 33 29 26 53 42 31 24 23 22 23 24 29 28 29
90 89 87 86 86 85 84 84 84 84 83 86 86 84 84 81 71 60 48 56 57 75 93 70 43 52 45 40 42 42 46 49 47 46 92 85 67 35 40 36 38 27 30 38 38 27 24 25 28 31 34 33 33 32
89 87 86 86 86 84 84 84 85 84 85 85 87 86 82 76 71 58 53 49 46 63 84 72 49 49 43 42 42 43 46 50 67 95 98 79 40 45 38 42 40 25 33 40 41 36 40 37 36 36 39 42 42 42
88 87 87 87 86 85 84 85 85 85 85 87 86 84 80 75 68 38 97 49 45 42 98 84 49 56 50 47 51 50 50 56 70 82 71 49 48 51 68 48 30 28 33 36 39 37 38 43 39 38 47 45 40 41
87 88 87 87 86 86 85 86 87 87 88 87 84 80 78 72 54 84 75 65 60 46 96 66 61 57 50 49 55 67 58 74 63 76 70 45 45 55 65 49 29 37 36 36 37 50 52 51 50 46 42 36 39 37
87 86 86 86 86 86 86 87 88 88 85 85 81 76 74 73 67 65 57 58 57 48 54 76 70 63 52 64 77 51 84 76 75 65 53 48 52 52 69 35 40 38 38 38 42 50 57 52 46 37 32 33 38 39
86 86 86 85 86 87 87 88 86 84 82 80 77 75 55 57 70 48 65 65 46 57 88 71 68 85 51 62 68 70 72 95 67 85 62 52 55 71 44 37 42 43 46 49 46 44 38 41 38 35 34 35 39 38
87 87 86 87 87 87 89 86 83 80 77 74 49 66 99 62 76 68 52 89 100 90 81 64 44 77 52 54 78 82 84 73 84 60 54 70 50 36 43 43 44 46 45 44 49 50 45 44 40 38 35 34 36 34
86 87 88 88 87 89 86 83 82 75 75 44 73 92 61 69 47 52 94 70 55 60 46 46 43 59 45 58 68 57 70 59 70 59 59 56 48 56 50 49 46 44 41 38 36 35 32 35 35 36 35 34 34 34
86 85 86 89 89 87 84 81 72 48 44 60 65 57 48 52 66 75 69 48 41 49 46 49 47 48 51 40 56 60 54 55 60 46 70 60 76 50 46 50 48 41 37 35 33 33 32 31 34 36 36 37 36 39
85 84 86 89 86 83 78 71 74 75 58 46 51 58 60 61 91 68 83 56 68 53 55 54 78 56 49 49 71 66 80 71 45 84 60 75 59 52 52 46 41 35 36 38 37 35 37 36 39 43 44 41 45 48
85 85 88 86 81 74 81 80 74 53 46 51 56 89 74 76 48 41 42 50 59 52 51 62 82 78 64 66 57 73 49 52 76 75 68 76 62 54 48 47 45 46 47 49 48 44 43 50 52 56 66 65 62 53
84 85 83 78 78 79 71 71 66 48 57 54 54 74 66 56 56 59 54 56 55 60 63 73 67 65 76 85 58 56 71 67 49 81 87 78 62 54 54 53 52 66 80 68 53 71 89 90 80 86 82 64 56 81
80 76 73 80 72 71 70 54 45 55 65 54 54 70 64 71 83 73 59 63 48 51 52 52 52 57 58 55 69 68 45 60 92 85 75 60 58 61 50 45 44 42 45 47 46 54 68 82 90 98 93 90 85 88
85 96 82 76 70 69 62 46 53 96 61 58 82 56 62 62 74 61 52 57 44 51 74 52 71 48 47 50 46 68 91 88 72 66 50 40 40 38 35 36 38 38 42 42 43 65 80 85 100 98 95 87 85 80
89 70 70 62 48 53 48 48 51 52 65 68 80 76 62 56 64 56 46 44 48 48 45 58 50 47 64 48 79 74 72 61 46 39 34 33 33 38 36 42 43 46 48 63 72 83 83 88 68 54 57 58 69 73
65 55 72 66 51 57 55 53 48 65 63 58 52 48 49 54 48 46 48 47 44 43 56 48 44 45 45 50 56 51 42 36 41 45 39 37 38 43 48 45 42 40 49 58 50 59 60 54 53 50 52 54 64 73
71 70 68 67 61 89 65 51 41 48 57 55 45 47 46 53 51 59 48 39 37 41 55 53 42 49 53 46 40 37 34 32 32 41 43 41 40 40 37 41 46 40 42 41 50 63 62 60 51 49 50 59 74 86
48 50 57 49 55 58 47 50 51 44 44 53 45 44 52 43 52 59 50 34 48 42 41 38 58 46 33 37 34 32 29 26 28 29 34 51 47 40 44 44 43 46 47 57 66 66 69 68 62 55 77 94 90 90
50 58 44 46 62 70 61 34 38 38 44 46 44 37 58 76 72 58 39 48 45 43 38 42 40 34 32 34 34 30 30 29 29 32 46 42 51 50 52 54 52 62 63 68 59 69 69 60 60 62 87 100 78 82
55 52 47 41 65 57 53 33 34 31 61 48 32 39 50 49 39 27 58 38 46 43 39 30 30 42 31 38 28 30 36 33 39 42 43 50 49 50 53 58 57 69 71 66 58 60 66 60 65 95 91 86 85 88
60 68 74 67 53 72 46 53 33 35 35 34 32 37 43 51 34 42 46 49 44 32 34 42 34 36 38 47 46 46 44 41 45 48 48 52 54 58 53 61 55 57 56 59 64 72 72 88 80 74 91 85 84 85
65 74 69 72 55 62 62 61 45 40 56 49 46 59 69 50 63 54 54 53 47 54 51 35 39 37 40 45 45 46 68 48 59 62 65 55 58 61 69 63 65 61 61 78 83 87 93 96 100 98 81 83 82 81
67 74 56 60 67 58 55 61 60 56 49 51 56 52 50 59 54 52 53 65 72 62 98 95 81 46 42 41 45 46 54 51 53 60 68 60 69 81 86 84 84 80 64 83 96 99 90 88 96 90 82 80 82 86
64 73 54 41 40 43 60 55 42 50 52 55 61 64 61 54 52 48 41 43 43 49 45 45 43 44 48 48 49 54 53 54 68 65 68 67 68 69 82 91 90 80 74 84 95 96 99 96 99 93 92 88 86 85
60 55 71 68 58 42 63 56 59 51 55 41 49 62 56 49 47 49 43 42 58 41 36 35 36 39 46 50 59 68 68 70 85 78 65 60 58 74 90 87 86 85 87 92 96 95 95 98 92 92 92 89 84 77
71 57 55 78 64 63 58 57 55 43 38 46 61 54 54 40 62 57 42 41 48 58 62 66 78 90 71 67 82 71 79 84 88 84 81 80 78 76 77 82 83 87 90 95 85 91 93 94 96 95 91 86 80 77
71 53 64 66 62 58 76 64 79 85 43 45 46 39 35 59 78 65 63 65 76 98 100 100 100 100 94 90 86 83 88 90 84 88 88 87 87 86 87 88 90 89 90 92 94 97 86 92 92 89 83 77 77 79
57 70 71 65 70 87 98 100 100 89 87 75 92 76 66 77 81 64 59 78 88 100 100 94 94 100 92 86 86 85 82 87 79 82 81 86 87 87 87 87 89 88 88 91 90 94 95 92 91 84 75 76 76 76
86 72 76 71 79 94 96 99 90 84 78 80 78 79 80 82 73 74 86 100 100 97 86 96 89 89 91 92 87 88 78 86 84 81 81 87 87 86 87 85 86 86 86 88 87 88 89 88 82 79 76 74 76 77
86 84 85 82 80 81 92 88 62 70 70 70 68 74 76 74 66 86 86 94 100 100 95 93 91 93 86 78 80 84 80 78 76 81 81 83 86 88 90 87 88 87 85 86 86 84 79 76 78 77 77 77 77 79

GFSWCAN_sfc_rhum_291.txt.gz
RH
91 91 92 92 92 92 91 89 85 82 82 79 78 76 76 75 74 79 90 91 88 99 86 70 67 77 73 84 90 74 78 86 100 92 99 92 88 72 70 60 63 72 85 93 89 92 92 33 28 43 54 52 50 52
92 92 92 92 92 92 90 87 84 83 80 79 78 77 74 78 77 72 84 77 78 96 86 70 68 65 65 69 80 78 81 85 97 97 99 94 89 89 63 85 48 76 75 87 79 80 55 35 47 49 50 55 58 58
93 92 92 92 92 91 88 86 85 82 80 79 77 76 77 80 71 76 83 81 86 98 83 85 80 60 49 63 65 94 87 68 85 81 96 94 77 79 85 74 62 50 47 79 63 49 46 46 47 47 49 51 50 50
92 92 92 92 92 90 88 87 84 82 81 78 78 78 81 78 74 76 82 84 89 96 97 86 54 60 50 51 55 58 61 70 79 92 100 98 92 59 75 62 63 52 50 58 59 45 52 52 53 54 50 50 47 46
92 92 92 92 92 91 89 86 83 81 80 79 80 79 78 80 74 66 74 76 74 88 97 92 65 54 54 52 58 62 73 84 96 99 99 94 75 76 72 68 68 48 59 66 80 57 60 61 55 51 51 50 49 48
92 92 92 91 90 88 86 85 82 81 80 79 79 76 79 72 64 68 96 67 75 78 97 97 71 66 64 65 71 73 78 87 95 98 96 80 63 82 94 80 51 45 47 56 66 55 53 54 53 47 49 49 44 44
92 92 91 90 87 84 83 83 82 82 80 78 78 81 79 76 78 93 83 76 74 81 97 94 93 68 64 68 84 91 85 96 94 97 95 82 76 86 95 83 51 47 49 58 57 57 67 57 62 54 53 40 42 39
91 91 89 87 85 83 84 84 83 81 80 81 78 73 69 71 74 81 72 70 78 87 90 93 96 85 65 91 96 86 98 97 93 92 83 84 78 85 91 57 48 44 46 53 52 50 55 57 55 47 40 39 40 40
91 90 88 85 84 84 83 83 81 78 76 73 74 80 72 80 87 71 67 72 83 85 95 94 91 97 73 90 90 92 97 97 92 96 94 79 86 88 64 52 52 58 59 55 51 49 45 49 47 43 40 42 48 45
89 87 85 84 84 84 82 79 75 72 74 76 62 88 100 79 70 69 78 91 99 98 97 95 81 95 85 90 96 96 97 96 97 91 81 94 78 58 52 53 56 54 48 48 55 58 54 53 50 48 44 44 51 52
85 84 84 83 82 80 77 73 73 78 60 68 92 95 82 69 75 80 96 86 91 86 81 81 73 78 75 91 95 91 96 93 94 84 88 95 92 76 60 62 58 51 47 44 44 46 46 53 56 57 56 55 60 59
84 83 82 81 78 74 73 71 70 64 74 80 75 70 76 84 95 90 91 71 74 75 71 81 81 82 74 72 86 84 80 86 82 78 90 89 97 59 58 60 54 52 53 51 49 50 52 48 55 62 64 66 67 67
82 81 79 76 73 71 70 73 74 66 53 64 77 80 87 82 97 80 87 83 88 77 78 74 87 83 82 84 94 89 82 88 78 92 86 99 78 64 60 57 56 55 61 62 57 54 57 60 58 59 64 70 76 80
80 78 77 74 72 71 78 73 62 70 66 82 83 89 87 85 80 77 73 82 81 75 74 86 97 93 95 89 92 79 77 80 86 94 87 98 79 71 68 66 66 67 64 67 68 60 60 63 63 75 82 84 87 81
79 77 76 74 74 81 73 66 62 70 86 79 78 85 88 85 85 83 74 73 70 81 85 93 94 93 96 89 88 81 78 82 84 98 99 94 78 72 67 63 62 72 80 70 67 78 82 80 82 86 82 80 80 85
79 74 73 78 68 69 69 63 64 81 89 81 78 90 86 89 92 87 82 84 76 80 87 86 85 80 84 87 81 81 76 92 99 99 94 86 82 73 60 58 61 62 63 69 70 71 75 82 80 81 85 88 90 91
73 81 72 70 70 68 61 65 79 80 85 81 92 87 87 89 93 91 87 86 77 86 93 90 80 68 78 79 81 95 98 97 93 96 92 62 64 60 57 57 60 62 67 67 64 74 79 73 84 88 88 80 89 87
81 63 68 66 58 66 69 75 82 80 94 98 98 91 87 86 88 89 81 80 81 91 90 80 84 68 84 75 97 96 96 93 83 74 66 57 56 56 46 55 59 65 70 76 76 80 83 82 70 68 75 75 84 87
62 59 71 67 64 84 79 75 77 94 98 96 78 77 79 86 82 81 82 78 74 76 91 84 72 85 95 95 89 91 87 80 82 83 80 55 54 53 58 67 64 65 67 72 70 71 74 73 75 76 76 78 84 84
68 67 68 70 75 89 73 76 70 80 90 90 75 78 80 88 80 92 82 70 64 85 82 85 96 95 91 91 87 79 79 63 70 85 84 86 86 58 61 67 77 76 79 72 78 83 84 80 80 79 79 80 84 85
50 60 65 71 85 79 76 82 78 74 77 90 74 74 85 76 89 88 83 62 80 82 92 94 94 92 76 77 78 66 55 51 57 68 72 82 86 67 78 81 74 75 83 92 90 86 90 88 87 83 86 86 84 84
68 66 72 71 82 81 81 61 66 69 79 74 71 74 90 92 91 88 62 85 86 91 94 90 89 77 69 56 62 60 57 52 50 57 64 70 86 88 87 91 84 92 92 91 91 88 88 85 85 84 88 87 84 86
72 72 76 67 78 72 68 55 58 62 91 75 72 72 84 87 73 58 87 84 90 89 86 77 65 68 70 62 50 45 51 48 77 86 87 92 92 91 88 93 90 91 92 91 90 92 94 94 86 88 86 87 87 90
71 78 83 82 70 86 65 71 58 64 64 68 62 65 73 83 58 81 80 90 93 65 72 64 71 80 76 56 78 81 78 89 91 91 92 92 92 90 93 94 88 92 95 92 92 96 96 95 91 87 88 89 88 90
74 82 84 82 76 82 80 79 70 66 79 72 75 87 87 82 86 82 79 91 89 89 87 82 83 82 88 91 92 88 81 91 91 89 92 92 94 95 94 94 95 94 93 95 97 97 97 94 87 89 89 90 97 97
87 84 78 78 86 78 83 83 80 79 80 81 80 79 82 88 78 77 86 92 95 98 97 93 91 88 86 89 88 89 87 91 92 92 94 94 94 96 97 97 94 96 89 93 93 93 92 91 92 92 92 89 97 99
88 84 62 50 53 56 81 68 54 79 80 84 91 87 85 79 73 82 90 89 91 94 96 96 93 92 91 88 89 92 92 89 90 93 93 93 94 96 97 98 99 96 91 93 95 94 94 94 93 93 96 92 97 97
77 70 84 82 77 58 80 84 79 75 80 78 87 78 73 75 83 88 92 90 90 89 88 91 89 89 92 92 93 93 93 94 92 90 93 93 95 96 95 96 95 92 94 93 90 90 92 94 95 97 97 97 97 97
88 78 78 88 85 86 85 84 85 76 74 83 87 83 76 87 95 92 91 90 91 90 88 89 93 97 95 95 95 95 96 96 91 96 96 97 96 96 95 96 97 97 92 91 90 88 89 97 97 99 98 98 96 95
83 79 86 86 89 95 99 95 96 97 87 94 85 71 74 94 95 95 93 93 93 94 97 98 98 99 97 96 95 93 99 97 96 95 97 99 98 98 97 98 98 96 92 92 92 90 91 91 90 96 96 95 95 93
83 86 85 89 96 98 98 97 96 96 95 95 95 92 89 93 93 91 92 95 100 98 99 99 98 97 99 95 96 97 99 98 95 92 94 97 98 98 98 98 98 95 94 93 93 93 95 98 97 97 95 96 93 96
91 86 90 91 98 95 95 94 93 92 91 91 91 91 94 95 93 95 98 97 99 99 99 96 95 97 90 95 91 93 97 97 95 97 95 97 98 98 98 98 98 96 96 94 95 96 96 97 96 96 97 94 97 97
89 87 89 92 94 92 92 88 85 85 87 86 88 93 90 90 87 94 94 97 97 95 97 96 95 92 87 92 93 96 96 93 88 91 97 97 97 100 98 98 99 100 98 96 93 98 97 94 98 98 97 98 99 99

GFSWCAN_sfc_rhum_297.txt.gz
RH
85 86 92 96 93 93 92 92 91 90 90 87 80 84 75 77 81 80 91 92 81 97 83 80 78 74 74 78 86 74 76 77 89 82 84 94 91 77 68 61 72 75 83 92 93 95 76 50 46 44 59 67 64 64
87 88 97 94 94 92 92 91 92 92 92 90 83 82 78 76 81 77 80 82 77 93 83 78 71 68 72 62 81 84 72 77 82 92 97 94 92 91 71 80 56 69 68 81 77 78 63 63 61 64 61 64 63 65
87 88 97 94 93 92 92 92 92 93 91 90 87 82 78 74 81 77 82 86 82 95 80 83 76 62 59 67 59 89 92 80 86 82 95 94 73 78 86 79 66 57 63 85 75 64 67 65 62 58 57 58 59 59
88 95 95 92 92 92 92 92 92 91 88 85 81 78 78 76 79 81 81 92 83 93 95 84 61 74 69 68 68 64 76 88 89 88 95 96 88 72 79 67 69 62 62 71 76 70 66 63 61 58 55 53 52 54
94 96 93 92 91 92 93 92 91 89 85 80 76 75 76 84 79 75 84 88 79 84 94 88 71 67 67 71 73 71 70 75 84 91 95 92 80 80 81 70 67 61 63 77 78 65 70 69 61 56 55 57 56 54
96 93 92 92 92 93 92 91 89 86 78 73 73 80 77 73 76 70 97 75 82 79 93 96 79 72 68 69 75 77 83 92 96 94 97 86 70 83 92 79 63 64 63 61 71 64 64 63 60 58 57 54 51 51
94 92 92 92 92 92 90 89 85 79 75 77 79 78 78 75 76 88 83 76 80 79 96 96 94 76 69 75 89 91 85 97 91 98 95 81 77 88 96 78 69 62 61 64 62 61 68 63 69 51 49 48 48 48
93 92 92 92 92 91 89 83 79 77 82 76 75 75 76 78 77 84 76 83 80 84 87 96 97 88 71 94 94 92 96 94 95 94 86 80 83 88 89 69 62 57 59 60 63 60 64 56 49 46 46 47 51 54
92 92 91 91 90 89 86 78 79 80 75 67 64 70 64 79 90 76 70 75 81 80 93 95 95 98 78 94 91 92 95 94 94 95 94 81 86 86 68 69 61 60 64 63 55 53 56 62 60 62 63 66 71 69
92 92 91 89 87 84 82 79 78 72 62 57 50 81 94 79 73 70 74 83 94 96 96 94 87 96 86 91 96 94 97 93 90 85 82 93 85 70 62 61 66 61 56 54 64 68 68 70 76 74 73 70 72 77
91 90 89 87 82 78 79 74 69 62 56 69 95 98 82 72 77 88 94 83 90 90 87 89 86 90 80 86 92 90 95 93 92 82 81 92 90 80 68 66 60 57 56 59 62 65 68 70 68 68 70 72 73 73
90 89 87 83 78 78 71 66 61 58 76 80 78 80 82 88 95 92 92 84 81 73 90 89 86 84 88 79 88 94 81 89 86 86 91 96 90 71 65 67 64 58 58 61 60 63 64 62 66 66 68 69 70 72
87 85 82 79 76 71 66 68 69 64 58 76 87 95 92 92 94 80 86 87 91 87 90 84 89 88 82 84 94 86 84 89 78 92 87 96 78 68 67 61 62 60 64 63 61 60 60 60 62 66 70 70 73 74
84 81 78 75 72 73 74 67 64 68 72 86 90 98 85 93 82 71 70 78 83 83 72 88 96 90 97 87 90 79 81 82 92 97 92 98 82 75 71 67 61 67 64 62 60 57 54 57 60 68 80 81 84 79
81 78 76 78 74 69 68 73 75 75 85 81 80 92 88 85 92 89 89 88 79 75 84 91 91 91 95 90 91 85 85 86 83 92 99 92 76 70 69 67 68 71 81 68 66 79 84 79 78 85 81 79 79 87
80 82 82 76 72 72 76 74 76 80 90 88 92 95 94 92 99 96 88 87 90 89 87 86 82 83 87 85 82 82 79 88 94 96 91 82 75 74 69 64 64 60 60 64 67 74 81 88 87 86 89 87 85 88
78 88 81 76 68 75 75 77 85 91 93 90 99 96 95 94 98 96 78 90 87 84 92 85 81 71 84 90 90 96 89 95 97 91 80 62 69 67 60 57 57 58 61 65 68 84 88 88 94 92 88 84 88 85
88 72 68 60 55 70 79 83 90 91 96 96 95 95 92 93 93 92 88 86 81 90 88 77 85 72 90 86 98 97 97 96 82 71 70 63 59 57 50 54 57 58 62 81 85 89 90 89 84 88 90 88 91 86
66 60 61 63 66 81 80 83 88 96 98 98 82 84 86 85 82 76 78 77 81 82 86 90 84 97 98 98 98 94 84 69 71 82 79 68 65 62 61 62 57 60 66 76 73 87 87 82 90 94 95 96 95 87
71 70 70 68 71 87 78 85 86 92 95 94 81 80 82 83 82 91 76 76 78 89 90 95 98 98 98 91 80 73 72 69 64 79 89 92 88 61 55 67 83 74 85 80 86 94 95 95 90 93 96 97 96 90
55 70 69 72 85 83 85 90 96 94 88 88 82 77 82 78 80 85 82 75 86 96 95 95 98 93 80 81 76 69 68 62 67 67 74 82 87 66 79 84 75 80 89 97 97 95 97 97 96 96 98 95 93 92
75 64 72 74 81 79 81 76 86 90 89 82 81 80 87 92 92 88 76 79 93 96 96 92 89 66 59 60 73 67 67 64 64 68 72 75 82 88 90 94 89 96 97 98 98 98 98 97 95 92 95 96 94 94
72 73 79 69 77 71 65 65 75 76 83 86 77 77 89 91 78 68 90 90 93 96 88 77 68 67 64 65 61 60 59 55 77 83 84 91 95 96 93 97 96 97 98 98 98 99 98 96 94 96 94 93 94 95
71 80 84 82 70 84 66 81 78 80 70 74 77 74 72 81 68 84 87 96 93 74 73 70 65 76 78 64 80 81 77 83 89 96 97 93 94 94 97 97 96 99 100 98 97 97 97 97 98 95 96 96 92 94
73 80 79 83 84 75 82 86 82 72 89 88 85 85 82 86 88 88 87 92 93 91 92 86 80 76 80 91 94 91 88 92 91 90 94 97 97 97 97 98 100 99 97 98 99 100 99 99 99 98 95 95 97 94
82 78 73 84 90 75 86 83 83 88 87 88 87 95 89 89 80 77 90 92 94 91 92 84 86 92 90 92 89 93 91 96 92 92 94 97 96 95 98 100 99 99 98 100 100 100 100 98 98 97 96 93 94 98
81 75 80 62 68 68 87 84 74 84 89 85 91 90 86 80 76 83 95 98 94 95 82 79 78 79 83 94 97 96 97 93 90 92 96 98 98 98 97 98 98 95 98 98 99 100 100 98 94 96 95 93 98 98
79 81 77 81 85 72 84 89 85 81 95 90 82 76 73 74 80 89 93 95 97 91 92 96 95 90 92 94 95 97 98 98 95 96 96 96 97 98 97 99 100 100 99 100 100 100 100 100 99 96 99 99 98 97
93 90 80 95 97 100 100 85 88 93 87 81 86 92 84 89 95 94 94 96 93 87 92 93 98 99 98 98 100 100 99 94 96 100 100 100 100 97 100 100 99 99 100 100 100 98 98 99 97 98 98 98 99 99
80 87 94 98 98 93 97 98 96 99 98 92 86 78 92 96 98 98 95 90 86 91 97 98 98 98 100 98 98 100 98 100 98 95 100 100 98 99 100 100 100 100 100 100 100 98 100 100 99 100 99 99 99 100
90 91 95 98 100 99 98 100 98 94 96 93 98 92 99 97 94 99 98 99 98 96 96 98 98 95 96 99 100 100 100 100 99 98 98 100 100 100 100 100 100 100 100 100 100 100 100 100 100 100 100 100 100 100
92 92 94 98 98 97 96 98 100 98 98 94 97 99 96 94 97 96 100 95 98 99 98 99 100 100 94 97 99 100 98 98 99 99 98 100 100 100 100 100 100 100 100 97 100 100 100 100 100 100 100 100 100 100
90 92 97 98 95 91 92 88 90 85 91 99 100 100 100 90 70 86 95 94 100 100 100 99 99 99 100 99 98 100 100 99 100 100 100 100 99 100 100 100 100 100 96 99 100 100 100 100 100 100 100 100 100 100